B3028 ZYTL-ZSPD

Flight info

Callsign B3028
Flight time 1h 33m
Altitude 38100
Route KAR19D KARPI W5 TAO W174 XDX DCT MABEB DCT GURIL DCT RUXEL W178 OSIKI W166 ZJ W167 SASAN R343 EKIMU
Aircraft CL60/M-SBDE1E2E3FGHIJ1J4J5J7M3RWXYZ/LB1V1D1

Departure

Time 2026-05-04 11:31
Airport Dalian Zhoushuizi International Airport (ZYTL)

Arrival

Time 2026-05-04 13:04
Airport Shanghai Pudong International Airport (ZSPD)
Time Latitude Longitude Altitude Speed Heading
2026-05-04 10:37 38.96353 121.52656 112 ft 0 kts 276°
2026-05-04 11:22 38.96355 121.52639 112 ft 4 kts 278°
2026-05-04 11:22 38.96369 121.52614 112 ft 0 kts 332°
2026-05-04 11:23 38.96392 121.52612 112 ft 6 kts
2026-05-04 11:23 38.96454 121.52629 112 ft 11 kts 50°
2026-05-04 11:24 38.96422 121.53469 112 ft 20 kts 97°
2026-05-04 11:25 38.96410 121.53623 112 ft 4 kts 95°
2026-05-04 11:25 38.96406 121.53684 112 ft 8 kts 96°
2026-05-04 11:25 38.96398 121.53782 112 ft 13 kts 96°
2026-05-04 11:26 38.96374 121.54084 112 ft 20 kts 96°
2026-05-04 11:27 38.96268 121.55173 112 ft 16 kts 96°
2026-05-04 11:28 38.96259 121.55282 112 ft 9 kts 96°
2026-05-04 11:28 38.96254 121.55374 112 ft 11 kts 94°
2026-05-04 11:28 38.96299 121.55458 112 ft 14 kts
2026-05-04 11:28 38.96326 121.55461 112 ft 3 kts
2026-05-04 11:29 38.96346 121.55463 112 ft 0 kts
2026-05-04 11:29 38.96348 121.55464 112 ft 0 kts
2026-05-04 11:29 38.96354 121.55464 112 ft 2 kts
2026-05-04 11:29 38.96391 121.55468 112 ft 7 kts
2026-05-04 11:31 38.96867 121.50409 2791 ft 167 kts 273°
2026-05-04 11:33 38.99824 121.37221 10122 ft 279 kts 333°
2026-05-04 11:33 39.01684 121.36638 11491 ft 286 kts
2026-05-04 11:33 39.03624 121.37157 12825 ft 294 kts 22°
2026-05-04 11:34 39.05280 121.38640 14129 ft 301 kts 45°
2026-05-04 11:34 39.06417 121.40993 14767 ft 331 kts 69°
2026-05-04 11:34 39.06666 121.44071 15180 ft 366 kts 93°
2026-05-04 11:34 39.06314 121.47380 15866 ft 384 kts 102°
2026-05-04 11:35 39.05210 121.50523 16898 ft 393 kts 123°
2026-05-04 11:35 39.03365 121.53116 17901 ft 400 kts 140°
2026-05-04 11:35 39.00967 121.54946 18839 ft 406 kts 158°
2026-05-04 11:35 38.98203 121.55797 19674 ft 413 kts 176°
2026-05-04 11:36 38.95345 121.55500 20476 ft 417 kts 195°
2026-05-04 11:36 38.92679 121.53995 21266 ft 420 kts 214°
2026-05-04 11:36 38.90235 121.51909 22005 ft 426 kts 216°
2026-05-04 11:36 38.87760 121.49785 22791 ft 431 kts 216°
2026-05-04 11:37 38.85240 121.47644 23590 ft 434 kts 216°
2026-05-04 11:37 38.82700 121.45491 24303 ft 439 kts 216°
2026-05-04 11:37 38.80131 121.43315 24998 ft 444 kts 216°
2026-05-04 11:37 38.77541 121.41124 25629 ft 448 kts 216°
2026-05-04 11:38 38.74937 121.38923 26242 ft 452 kts 216°
2026-05-04 11:38 38.72304 121.36700 26791 ft 456 kts 216°
2026-05-04 11:38 38.69649 121.34459 27349 ft 460 kts 215°
2026-05-04 11:38 38.66955 121.32188 27880 ft 463 kts 215°
2026-05-04 11:39 38.64262 121.29912 28297 ft 468 kts 215°
2026-05-04 11:39 38.61531 121.27606 28782 ft 470 kts 215°
2026-05-04 11:40 38.47784 121.10037 31110 ft 469 kts 245°
2026-05-04 11:41 38.46650 121.06190 31533 ft 464 kts 255°
2026-05-04 11:41 38.45654 121.02237 31689 ft 469 kts 254°
2026-05-04 11:41 38.44572 120.98290 31795 ft 475 kts 252°
2026-05-04 11:41 38.43393 120.94334 31937 ft 478 kts 251°
2026-05-04 11:42 38.42124 120.90403 32084 ft 481 kts 250°
2026-05-04 11:42 38.40762 120.86500 32268 ft 483 kts 248°
2026-05-04 11:42 38.39314 120.82643 32485 ft 484 kts 246°
2026-05-04 11:42 38.37779 120.78836 32731 ft 484 kts 245°
2026-05-04 11:43 38.36165 120.75098 33000 ft 484 kts 243°
2026-05-04 11:43 38.34467 120.71414 33258 ft 483 kts 242°
2026-05-04 11:43 38.32632 120.67837 33517 ft 484 kts 236°
2026-05-04 11:43 38.30401 120.64585 33780 ft 487 kts 227°
2026-05-04 11:44 38.27791 120.61810 34018 ft 489 kts 218°
2026-05-04 11:44 38.24863 120.59572 34245 ft 491 kts 209°
2026-05-04 11:44 38.21786 120.57679 34435 ft 492 kts 208°
2026-05-04 11:44 38.18696 120.55796 34595 ft 491 kts 208°
2026-05-04 11:45 38.15575 120.54028 34760 ft 492 kts 203°
2026-05-04 11:45 38.12297 120.52827 35021 ft 490 kts 193°
2026-05-04 11:45 38.08939 120.52306 35440 ft 485 kts 184°
2026-05-04 11:45 38.05591 120.52446 35857 ft 480 kts 176°
2026-05-04 11:46 38.02299 120.52891 36264 ft 473 kts 176°
2026-05-04 11:46 37.99061 120.53293 36749 ft 466 kts 178°
2026-05-04 11:46 37.95857 120.53643 37187 ft 460 kts 179°
2026-05-04 11:46 37.92688 120.53941 37632 ft 455 kts 180°
2026-05-04 11:47 37.89549 120.54190 38060 ft 449 kts 181°
2026-05-04 11:47 37.86406 120.54392 38324 ft 448 kts 181°
2026-05-04 11:47 37.83241 120.54546 38387 ft 451 kts 182°
2026-05-04 11:47 37.80098 120.54647 38578 ft 451 kts 183°
2026-05-04 11:48 37.76943 120.54697 38589 ft 456 kts 184°
2026-05-04 11:48 37.70550 120.54637 38581 ft 464 kts 186°
2026-05-04 11:49 37.64068 120.54284 38567 ft 468 kts 191°
2026-05-04 11:49 37.57570 120.53317 38612 ft 472 kts 192°
2026-05-04 11:50 37.50271 120.52221 38825 ft 472 kts 192°
2026-05-04 11:50 37.47014 120.51733 38985 ft 471 kts 192°
2026-05-04 11:50 37.43747 120.51245 39107 ft 470 kts 192°
2026-05-04 11:50 37.40606 120.50776 39219 ft 469 kts 192°
2026-05-04 11:51 37.37370 120.50292 39278 ft 470 kts 192°
2026-05-04 11:51 37.31126 120.49361 39418 ft 470 kts 192°
2026-05-04 11:52 37.24773 120.48416 39618 ft 469 kts 192°
2026-05-04 11:52 37.21538 120.47935 39737 ft 469 kts 192°
2026-05-04 11:52 37.18305 120.47456 39862 ft 467 kts 192°
2026-05-04 11:53 37.11853 120.46500 40028 ft 467 kts 192°
2026-05-04 11:53 37.05388 120.45543 40137 ft 469 kts 192°
2026-05-04 11:55 36.82151 120.42117 40146 ft 483 kts 192°
2026-05-04 11:56 36.75460 120.41135 40146 ft 485 kts 192°
2026-05-04 11:56 36.68764 120.40156 40145 ft 485 kts 192°
2026-05-04 11:57 36.62075 120.39179 40144 ft 484 kts 192°
2026-05-04 11:57 36.55393 120.38205 40142 ft 484 kts 192°
2026-05-04 11:58 36.48652 120.37663 40147 ft 487 kts 187°
2026-05-04 11:58 36.41878 120.37432 40147 ft 486 kts 187°
2026-05-04 11:59 36.35115 120.37195 40149 ft 486 kts 187°
2026-05-04 11:59 36.28394 120.36799 40151 ft 480 kts 193°
2026-05-04 12:00 36.21868 120.35203 40148 ft 476 kts 198°
2026-05-04 12:00 36.15474 120.33547 40150 ft 477 kts 197°
2026-05-04 12:01 36.08974 120.31868 40155 ft 477 kts 197°
2026-05-04 12:02 35.88970 120.19932 40163 ft 454 kts 224°
2026-05-04 12:03 35.84103 120.14962 40172 ft 453 kts 224°
2026-05-04 12:03 35.79264 120.10028 40171 ft 452 kts 224°
2026-05-04 12:04 35.74425 120.05104 40170 ft 452 kts 224°
2026-05-04 12:04 35.69593 120.00195 40171 ft 451 kts 225°
2026-05-04 12:05 35.64762 119.95295 40168 ft 451 kts 225°
2026-05-04 12:05 35.59928 119.90401 40175 ft 451 kts 225°
2026-05-04 12:06 35.55087 119.85506 40171 ft 451 kts 224°
2026-05-04 12:06 35.50253 119.80628 40166 ft 451 kts 224°
2026-05-04 12:07 35.45412 119.75750 40160 ft 451 kts 225°
2026-05-04 12:07 35.40588 119.70839 40154 ft 452 kts 225°
2026-05-04 12:08 35.35765 119.65905 40153 ft 453 kts 225°
2026-05-04 12:08 35.30930 119.60967 40153 ft 453 kts 225°
2026-05-04 12:09 35.26098 119.56042 40158 ft 453 kts 225°
2026-05-04 12:09 35.21268 119.51127 40149 ft 452 kts 225°
2026-05-04 12:10 35.16444 119.46225 40154 ft 452 kts 225°
2026-05-04 12:10 35.11617 119.41328 40159 ft 451 kts 225°
2026-05-04 12:11 35.06772 119.36420 40158 ft 451 kts 225°
2026-05-04 12:11 35.01928 119.31522 40158 ft 452 kts 225°
2026-05-04 12:12 34.97064 119.26610 40156 ft 453 kts 224°
2026-05-04 12:12 34.92212 119.21720 40157 ft 453 kts 225°
2026-05-04 12:14 34.72947 119.02378 40154 ft 452 kts 224°
2026-05-04 12:15 34.68099 118.97529 40150 ft 452 kts 225°
2026-05-04 12:15 34.63158 118.92812 40150 ft 455 kts 219°
2026-05-04 12:16 34.57494 118.89245 40152 ft 465 kts 207°
2026-05-04 12:16 34.51153 118.87321 40146 ft 476 kts 194°
2026-05-04 12:17 34.44582 118.86258 40149 ft 476 kts 194°
2026-05-04 12:17 34.38018 118.85196 40143 ft 476 kts 194°
2026-05-04 12:18 34.31464 118.84136 40145 ft 475 kts 194°
2026-05-04 12:18 34.24909 118.83076 40147 ft 476 kts 194°
2026-05-04 12:19 34.18347 118.82017 40145 ft 476 kts 194°
2026-05-04 12:19 34.11793 118.80961 40143 ft 476 kts 194°
2026-05-04 12:20 34.05215 118.79909 40143 ft 475 kts 194°
2026-05-04 12:20 33.98657 118.78864 40145 ft 474 kts 194°
2026-05-04 12:21 33.92126 118.77824 40141 ft 473 kts 194°
2026-05-04 12:21 33.85574 118.76781 40137 ft 474 kts 194°
2026-05-04 12:22 33.79091 118.75742 40134 ft 474 kts 194°
2026-05-04 12:22 33.72537 118.74692 40139 ft 474 kts 194°
2026-05-04 12:23 33.66193 118.73676 40137 ft 473 kts 195°
2026-05-04 12:23 33.59675 118.72634 40131 ft 473 kts 195°
2026-05-04 12:24 33.53146 118.71592 40130 ft 472 kts 195°
2026-05-04 12:24 33.46642 118.70556 40129 ft 472 kts 195°
2026-05-04 12:25 33.40091 118.69508 40141 ft 472 kts 195°
2026-05-04 12:25 33.33584 118.68475 40137 ft 472 kts 194°
2026-05-04 12:26 33.26935 118.68278 40137 ft 484 kts 183°
2026-05-04 12:26 33.20207 118.69711 40138 ft 497 kts 171°
2026-05-04 12:27 33.13710 118.72898 40137 ft 511 kts 158°
2026-05-04 12:27 33.07731 118.77598 40119 ft 517 kts 151°
2026-05-04 12:28 33.01825 118.82495 40131 ft 518 kts 152°
2026-05-04 12:28 32.95908 118.87390 40137 ft 519 kts 152°
2026-05-04 12:29 32.89979 118.92286 40130 ft 518 kts 152°
2026-05-04 12:29 32.84143 118.97101 40136 ft 519 kts 152°
2026-05-04 12:30 32.78307 119.01952 40142 ft 519 kts 152°
2026-05-04 12:30 32.72478 119.06791 40142 ft 519 kts 152°
2026-05-04 12:31 32.66567 119.11689 40146 ft 519 kts 152°
2026-05-04 12:31 32.60665 119.16571 40142 ft 518 kts 152°
2026-05-04 12:32 32.51806 119.23883 40150 ft 518 kts 152°
2026-05-04 12:33 32.45890 119.28755 40154 ft 519 kts 152°
2026-05-04 12:33 32.39959 119.33632 40155 ft 519 kts 152°
2026-05-04 12:34 32.34038 119.38493 40157 ft 518 kts 152°
2026-05-04 12:34 32.28116 119.43346 40153 ft 518 kts 152°
2026-05-04 12:35 32.22199 119.48189 40161 ft 516 kts 152°
2026-05-04 12:35 32.16296 119.53011 40162 ft 516 kts 152°
2026-05-04 12:36 32.10395 119.57823 40164 ft 517 kts 152°
2026-05-04 12:36 32.04481 119.62639 40169 ft 517 kts 152°
2026-05-04 12:37 31.98524 119.67529 40174 ft 519 kts 150°
2026-05-04 12:37 31.95686 119.70289 39999 ft 529 kts 144°
2026-05-04 12:37 31.93096 119.73404 39752 ft 537 kts 137°
2026-05-04 12:37 31.90791 119.76887 39521 ft 542 kts 130°
2026-05-04 12:38 31.88663 119.80579 39262 ft 541 kts 130°
2026-05-04 12:38 31.86549 119.84266 39015 ft 540 kts 130°
2026-05-04 12:38 31.84430 119.87950 38770 ft 540 kts 130°
2026-05-04 12:38 31.82694 119.90967 38559 ft 540 kts 130°
2026-05-04 12:39 31.80577 119.94642 38313 ft 540 kts 130°
2026-05-04 12:39 31.78473 119.98290 38068 ft 540 kts 130°
2026-05-04 12:39 31.76372 120.01929 37831 ft 540 kts 130°
2026-05-04 12:39 31.74262 120.05579 37595 ft 541 kts 130°
2026-05-04 12:40 31.72154 120.09224 37348 ft 542 kts 130°
2026-05-04 12:40 31.70043 120.12868 37107 ft 542 kts 130°
2026-05-04 12:40 31.67923 120.16525 36850 ft 542 kts 130°
2026-05-04 12:40 31.65798 120.20189 36607 ft 541 kts 130°
2026-05-04 12:41 31.63666 120.23858 36357 ft 542 kts 130°
2026-05-04 12:41 31.61532 120.27538 35925 ft 545 kts 129°
2026-05-04 12:41 31.59583 120.31338 35292 ft 547 kts 123°
2026-05-04 12:41 31.57984 120.35381 34684 ft 551 kts 116°
2026-05-04 12:42 31.56683 120.39608 34061 ft 554 kts 113°
2026-05-04 12:42 31.55433 120.43871 33443 ft 554 kts 113°
2026-05-04 12:42 31.54181 120.48121 32836 ft 553 kts 112°
2026-05-04 12:42 31.52929 120.52366 32216 ft 548 kts 112°
2026-05-04 12:43 31.51691 120.56558 31565 ft 541 kts 112°
2026-05-04 12:43 31.50475 120.60671 30860 ft 532 kts 112°
2026-05-04 12:43 31.49276 120.64720 30142 ft 524 kts 112°
2026-05-04 12:43 31.48091 120.68715 29401 ft 516 kts 113°
2026-05-04 12:44 31.46923 120.72644 28683 ft 509 kts 113°
2026-05-04 12:44 31.45772 120.76517 27953 ft 494 kts 113°
2026-05-04 12:44 31.44652 120.80246 27234 ft 479 kts 113°
2026-05-04 12:44 31.43535 120.83855 26510 ft 465 kts 113°
2026-05-04 12:45 31.42446 120.87362 25789 ft 454 kts 113°
2026-05-04 12:45 31.41384 120.90779 25067 ft 443 kts 113°
2026-05-04 12:45 31.40339 120.94135 24348 ft 434 kts 112°
2026-05-04 12:45 31.39331 120.97416 23623 ft 426 kts 112°
2026-05-04 12:46 31.38351 121.00641 22907 ft 418 kts 112°
2026-05-04 12:46 31.37390 121.03796 22190 ft 410 kts 111°
2026-05-04 12:46 31.36444 121.06903 21456 ft 402 kts 111°
2026-05-04 12:46 31.35517 121.09941 20735 ft 395 kts 111°
2026-05-04 12:47 31.34610 121.12935 20009 ft 388 kts 110°
2026-05-04 12:47 31.33728 121.15875 19293 ft 381 kts 110°
2026-05-04 12:47 31.32859 121.18766 18529 ft 373 kts 110°
2026-05-04 12:47 31.32005 121.21605 17829 ft 366 kts 109°
2026-05-04 12:48 31.31168 121.24386 17117 ft 361 kts 109°
2026-05-04 12:48 31.30344 121.27120 16366 ft 354 kts 109°
2026-05-04 12:48 31.29533 121.29809 15663 ft 349 kts 109°
2026-05-04 12:48 31.28733 121.32458 14938 ft 345 kts 109°
2026-05-04 12:49 31.27940 121.35076 14213 ft 341 kts 108°
2026-05-04 12:49 31.27157 121.37657 13487 ft 337 kts 108°
2026-05-04 12:49 31.26380 121.40212 12771 ft 333 kts 108°
2026-05-04 12:49 31.25614 121.42732 12054 ft 329 kts 108°
2026-05-04 12:50 31.24846 121.45254 11312 ft 326 kts 108°
2026-05-04 12:50 31.24096 121.47719 10609 ft 322 kts 107°
2026-05-04 12:50 31.23353 121.50158 9853 ft 318 kts 107°
2026-05-04 12:50 31.22901 121.52635 9135 ft 308 kts 88°
2026-05-04 12:51 31.23191 121.55057 8429 ft 299 kts 70°
2026-05-04 12:51 31.23843 121.57336 7713 ft 295 kts 63°
2026-05-04 12:51 31.24948 121.59285 6968 ft 286 kts 41°
2026-05-04 12:51 31.26562 121.60573 6245 ft 277 kts 20°
2026-05-04 12:52 31.28404 121.61080 5527 ft 270 kts
2026-05-04 12:52 31.30243 121.60831 4799 ft 266 kts 342°
2026-05-04 12:52 31.31991 121.60179 4082 ft 264 kts 340°
2026-05-04 12:52 31.33727 121.59506 3409 ft 262 kts 340°
2026-05-04 12:53 31.35409 121.58843 3109 ft 247 kts 340°
2026-05-04 12:53 31.36959 121.58225 3063 ft 222 kts 340°
2026-05-04 12:53 31.38450 121.57629 3040 ft 226 kts 340°
2026-05-04 12:53 31.39936 121.57034 3017 ft 224 kts 340°
2026-05-04 12:54 31.41413 121.56443 3003 ft 224 kts 340°
2026-05-04 12:54 31.42889 121.55853 3004 ft 224 kts 340°
2026-05-04 12:54 31.44416 121.55544 3004 ft 225 kts
2026-05-04 12:54 31.45789 121.56265 3004 ft 209 kts 44°
2026-05-04 12:55 31.46447 121.57704 3020 ft 198 kts 74°
2026-05-04 12:55 31.46540 121.59265 3012 ft 192 kts 105°
2026-05-04 12:55 31.46109 121.60726 3007 ft 189 kts 112°
2026-05-04 12:55 31.45627 121.62156 3006 ft 189 kts 113°
2026-05-04 12:56 31.45143 121.63584 3006 ft 188 kts 113°
2026-05-04 12:56 31.44662 121.65001 3018 ft 187 kts 113°
2026-05-04 12:56 31.44071 121.66356 3006 ft 187 kts 127°
2026-05-04 12:56 31.43203 121.67481 3005 ft 186 kts 143°
2026-05-04 12:57 31.42052 121.68169 3007 ft 185 kts 160°
2026-05-04 12:57 31.40839 121.68686 3007 ft 185 kts 162°
2026-05-04 12:57 31.39618 121.69175 3005 ft 185 kts 163°
2026-05-04 12:57 31.38393 121.69646 3031 ft 185 kts 163°
2026-05-04 12:58 31.37177 121.70112 2989 ft 183 kts 163°
2026-05-04 12:58 31.35959 121.70574 2993 ft 183 kts 163°
2026-05-04 12:58 31.34741 121.71038 3000 ft 183 kts 163°
2026-05-04 12:58 31.33519 121.71502 3001 ft 183 kts 163°
2026-05-04 12:59 31.32299 121.71965 2995 ft 183 kts 163°
2026-05-04 12:59 31.31080 121.72427 3015 ft 184 kts 163°
2026-05-04 12:59 31.29853 121.72893 2911 ft 186 kts 163°
2026-05-04 12:59 31.28645 121.73351 2687 ft 173 kts 162°
2026-05-04 13:00 31.27590 121.73752 2515 ft 146 kts 162°
2026-05-04 13:00 31.26697 121.74090 2338 ft 126 kts 162°
2026-05-04 13:00 31.25860 121.74407 2148 ft 125 kts 161°
2026-05-04 13:00 31.25047 121.74715 1976 ft 121 kts 161°
2026-05-04 13:01 31.24245 121.75019 1821 ft 120 kts 161°
2026-05-04 13:01 31.23449 121.75320 1653 ft 119 kts 161°
2026-05-04 13:01 31.22664 121.75618 1506 ft 118 kts 162°
2026-05-04 13:01 31.21879 121.75915 1349 ft 118 kts 161°
2026-05-04 13:02 31.21098 121.76211 1196 ft 118 kts 161°
2026-05-04 13:02 31.20312 121.76508 1029 ft 117 kts 161°
2026-05-04 13:02 31.19529 121.76807 884 ft 118 kts 160°
2026-05-04 13:02 31.18744 121.77104 736 ft 117 kts 160°
2026-05-04 13:03 31.17964 121.77401 581 ft 117 kts 160°
2026-05-04 13:03 31.17183 121.77696 425 ft 117 kts 161°
2026-05-04 13:03 31.16405 121.77992 272 ft 118 kts 160°
2026-05-04 13:03 31.15624 121.78286 118 ft 117 kts 160°
2026-05-04 13:04 31.14864 121.78570 24 ft 105 kts 159°
2026-05-04 13:04 31.14290 121.78787 21 ft 58 kts 161°
2026-05-04 13:04 31.14046 121.78876 21 ft 27 kts 163°
2026-05-04 13:04 31.13882 121.78935 21 ft 22 kts 161°
2026-05-04 13:05 31.13748 121.78985 21 ft 17 kts 161°
2026-05-04 13:05 31.13642 121.79025 21 ft 14 kts 168°
2026-05-04 13:05 31.13550 121.79031 21 ft 12 kts 183°
2026-05-04 13:05 31.13482 121.79024 21 ft 8 kts 188°
2026-05-04 13:06 31.13457 121.79019 21 ft 0 kts 188°
2026-05-04 13:06 31.13429 121.79015 21 ft 8 kts 187°
2026-05-04 13:07 31.13351 121.79001 21 ft 13 kts 189°
2026-05-04 13:07 31.13301 121.78992 21 ft 2 kts 188°
2026-05-04 13:07 31.13268 121.78986 21 ft 7 kts 188°
2026-05-04 13:07 31.13202 121.78986 21 ft 11 kts 162°
2026-05-04 13:08 31.13112 121.79022 21 ft 15 kts 161°
2026-05-04 13:08 31.13029 121.79053 21 ft 8 kts 171°
2026-05-04 13:08 31.12979 121.79003 21 ft 12 kts 231°
2026-05-04 13:08 31.12884 121.78999 21 ft 16 kts 161°
2026-05-04 13:09 31.12824 121.79023 21 ft 2 kts 162°
2026-05-04 13:09 31.12790 121.79035 21 ft 7 kts 163°
2026-05-04 13:09 31.12772 121.79040 21 ft 3 kts 180°
2026-05-04 13:09 31.12752 121.79001 21 ft 4 kts 252°
2026-05-04 13:10 31.12760 121.78971 21 ft 7 kts 340°
2026-05-04 13:10 31.12780 121.78964 21 ft 5 kts 342°
2026-05-04 13:10 31.12781 121.78964 21 ft 0 kts 342°